Dewpoint
72 72 73 63 48 48 44 44 48 47 50 57 59 57 59 61 57 49 66 69 71 72 72 73 75 74 74 74 75 75 77 76 77 77 77 76 75 75 76 75 75 75 75 75 74 75 75 73 72
71 71 65 59 47 40 41 48 47 49 55 57 58 60 60 61 62 64 67 70 71 72 73 72 75 75 75 74 75 76 76 76 77 77 77 76 75 76 76 75 74 75 75 74 74 74 73 73 73
68 66 58 55 50 42 44 51 50 52 54 54 57 61 61 61 63 65 69 71 71 72 72 73 75 75 75 75 75 76 76 76 76 76 76 75 75 76 75 74 74 74 74 74 74 72 73 74 74
66 60 57 49 47 49 49 49 51 50 54 57 59 59 63 64 64 68 70 71 71 72 72 74 75 75 75 75 75 75 76 76 76 77 76 75 75 75 75 75 74 74 73 73 74 74 73 73 73
63 56 49 46 47 50 52 51 54 50 56 59 58 59 62 65 68 69 70 71 71 71 72 73 75 75 75 76 76 76 76 76 77 77 76 76 75 75 75 75 75 75 74 73 73 73 74 73 73
56 56 47 44 46 49 50 51 53 54 57 58 59 59 62 66 66 68 69 70 71 71 72 73 75 76 77 76 76 77 76 76 76 76 75 75 75 75 75 74 74 75 75 74 73 73 73 72 73
55 54 51 50 50 49 48 52 51 54 56 57 60 59 63 63 65 67 68 71 72 72 72 72 73 74 75 76 77 76 77 76 77 77 77 76 74 75 75 75 75 74 74 75 73 73 74 73 72
58 56 51 50 46 44 49 51 51 53 54 59 60 59 60 63 64 66 69 71 72 72 72 72 73 74 73 73 76 77 77 77 76 75 75 74 74 74 75 76 76 74 74 74 74 73 72 73 72
59 53 51 51 50 44 50 49 49 51 56 57 58 60 62 64 64 67 68 70 71 72 72 73 73 74 74 74 74 77 77 76 75 74 73 75 74 74 74 74 74 73 73 73 73 73 73 72 72
54 52 48 53 51 43 50 49 47 53 55 57 59 62 63 63 66 66 66 68 69 70 72 73 74 73 74 74 74 75 74 74 74 73 74 74 74 74 74 75 74 74 73 73 74 74 73 72 73
53 48 46 44 45 45 48 47 52 53 53 56 59 61 62 65 65 66 66 67 68 70 72 73 73 74 74 74 75 75 74 74 74 74 74 74 74 75 75 75 73 74 74 73 74 74 73 72 72
40 43 47 32 25 38 46 48 51 53 53 57 61 62 63 65 65 66 66 67 68 70 72 72 73 73 74 74 74 74 74 74 74 74 74 74 73 73 73 73 74 74 74 73 73 74 73 72 71
28 27 29 28 26 25 48 49 52 52 55 59 61 62 64 65 65 66 66 66 68 69 71 72 72 72 73 73 74 74 74 74 74 74 74 74 73 73 73 73 73 73 73 73 73 73 72 72 72
26 24 24 27 28 28 44 47 52 53 57 58 60 62 63 64 65 66 66 66 68 68 70 71 72 72 72 72 72 72 73 74 73 74 74 73 73 72 72 72 72 73 73 73 73 72 72 71 71
24 23 26 28 26 21 33 40 43 54 56 57 59 61 62 63 64 64 65 65 67 68 69 70 71 71 71 72 72 72 72 72 72 72 73 73 73 72 72 72 72 73 73 72 72 72 72 71 71
26 25 24 25 23 20 22 22 53 54 55 57 59 59 60 61 62 63 64 64 66 66 67 69 70 71 71 72 72 71 71 71 72 72 72 73 73 73 72 71 71 72 72 72 72 71 70 70 70
22 20 26 24 24 20 20 19 52 54 54 55 57 58 59 60 61 62 63 64 64 64 66 68 69 70 70 71 72 71 71 71 71 72 72 72 73 73 72 72 72 72 71 71 71 70 70 69 69
21 18 24 24 20 20 21 25 52 52 53 54 54 55 57 58 60 61 64 66 66 66 66 68 68 69 70 70 72 72 71 70 71 71 71 72 72 73 73 72 72 72 71 70 70 70 70 69 69
27 24 20 20 23 21 23 32 51 52 52 52 53 54 55 55 57 60 63 66 67 67 68 68 69 69 70 70 70 70 70 71 70 71 72 72 72 72 73 72 72 71 71 70 70 70 70 69 69
29 25 19 20 20 22 32 32 42 51 51 52 52 53 54 54 56 59 62 64 66 66 67 68 69 70 70 70 70 71 71 71 71 71 71 72 73 73 72 72 71 71 71 70 70 70 69 69 70
27 20 21 20 22 23 32 33 36 52 52 52 52 53 54 53 54 58 62 63 65 66 68 69 69 70 71 71 71 71 71 70 70 70 70 70 72 73 72 72 71 71 71 70 70 70 70 68 69
33 24 24 20 19 18 27 29 31 45 53 55 51 52 52 54 56 58 63 64 65 66 69 69 70 70 71 71 70 70 69 68 69 69 71 70 71 72 73 72 72 71 71 70 70 70 70 70 68
22 24 25 25 20 19 22 25 33 48 51 56 57 53 53 55 58 60 63 63 65 66 69 70 71 70 71 71 71 70 70 70 71 70 71 71 71 72 72 73 73 72 72 71 71 71 70 69 68
25 24 24 28 23 20 25 20 26 43 49 55 59 59 60 61 61 63 65 65 65 67 68 70 70 70 70 71 71 71 70 70 70 70 70 71 71 71 72 73 73 73 72 72 71 71 71 70 70
22 22 20 20 22 22 27 27 28 36 51 56 59 60 61 62 63 65 66 66 66 67 68 70 70 69 70 70 70 71 71 71 71 71 71 72 72 72 72 72 73 73 72 72 71 70 70 70 70
23 21 20 21 19 21 29 31 34 42 45 57 60 60 60 61 63 65 66 66 67 68 69 70 70 70 71 71 71 71 71 72 72 72 72 72 72 73 73 72 72 73 73 73 73 72 70 70 70
25 22 23 22 21 20 22 33 42 45 51 56 56 58 59 60 61 64 65 66 67 68 69 70 70 70 70 71 72 72 72 72 73 73 73 73 73 73 73 73 72 72 72 73 73 72 72 71 71
22 23 19 20 20 22 22 31 34 43 47 53 53 56 58 59 59 61 62 62 63 63 64 66 67 68 67 66 67 68 68 68 70 71 71 71 72 72 72 72 73 72 72 72 72 72 72 70 71
22 24 25 23 22 18 22 28 37 41 44 49 52 55 57 57 58 59 59 60 61 60 61 62 63 64 64 65 66 67 67 68 68 69 69 69 70 69 69 69 70 71 72 72 72 72 72 71 70
27 25 27 26 24 25 23 24 34 37 43 48 50 54 55 56 56 57 58 58 59 59 61 61 62 62 64 65 65 64 65 66 66 66 66 67 66 67 67 68 68 69 71 72 71 71 72 70 70
Lifted_Index
-4 -4 -4 -2 -0 0 0 0 0 0 0 -1 -1 -1 -1 -1 -0 0 -0 -1 -2 -3 -3 -3 -4 -3 -3 -4 -4 -4 -5 -5 -6 -5 -5 -4 -4 -4 -4 -4 -4 -4 -4 -4 -3 -3 -3 -3 -2
-4 -4 -3 -2 -0 0 0 -0 -0 -0 -0 -1 -1 -1 -1 -1 -0 -0 -1 -2 -2 -3 -3 -3 -4 -4 -4 -4 -4 -5 -5 -5 -6 -6 -5 -4 -4 -5 -4 -4 -4 -4 -4 -4 -3 -3 -3 -3 -3
-4 -3 -1 -1 -0 0 -0 -0 -1 -1 -1 -1 -2 -2 -2 -1 -0 -1 -1 -2 -2 -2 -3 -4 -4 -4 -4 -4 -4 -5 -5 -5 -6 -6 -6 -5 -5 -5 -4 -4 -4 -4 -4 -3 -3 -3 -3 -3 -3
-3 -1 -0 -0 -0 -0 -0 -1 -1 -1 -2 -2 -2 -2 -2 -1 -1 -1 -2 -2 -2 -2 -3 -4 -5 -5 -5 -4 -5 -5 -5 -5 -6 -6 -6 -5 -5 -5 -5 -4 -4 -4 -3 -3 -3 -3 -3 -3 -3
-1 -1 0 0 -0 -0 -1 -1 -1 -1 -2 -2 -2 -2 -2 -2 -1 -2 -2 -2 -2 -2 -3 -4 -5 -5 -5 -5 -5 -5 -5 -5 -6 -6 -6 -5 -5 -5 -5 -5 -5 -4 -4 -3 -3 -3 -3 -3 -3
-1 -1 -0 -0 -1 -1 -1 -1 -1 -1 -2 -2 -2 -2 -2 -2 -1 -2 -2 -2 -2 -2 -3 -4 -5 -5 -5 -5 -6 -6 -5 -5 -5 -6 -6 -6 -5 -6 -6 -5 -5 -5 -4 -4 -3 -3 -3 -3 -3
-2 -1 -1 -1 -1 -1 -1 -1 -1 -2 -2 -2 -2 -2 -2 -2 -1 -1 -2 -2 -3 -2 -2 -3 -4 -5 -5 -6 -6 -6 -6 -5 -5 -6 -6 -6 -6 -6 -6 -6 -5 -5 -5 -4 -4 -3 -3 -3 -3
-1 -1 -1 -2 -2 -2 -1 -1 -1 -2 -2 -2 -2 -2 -2 -2 -1 -1 -2 -3 -3 -3 -3 -4 -4 -5 -6 -6 -6 -6 -6 -6 -5 -5 -6 -6 -6 -6 -6 -6 -5 -5 -5 -5 -4 -4 -3 -3 -3
-1 -0 -0 -1 -2 -1 -1 -1 -2 -2 -2 -2 -2 -2 -2 -2 -1 -2 -2 -3 -3 -3 -4 -4 -5 -5 -6 -6 -6 -7 -7 -6 -5 -5 -5 -6 -6 -6 -6 -6 -5 -5 -5 -5 -5 -4 -4 -4 -3
0 1 1 0 -0 -0 -1 -2 -1 -2 -2 -2 -2 -2 -2 -2 -2 -2 -2 -3 -3 -4 -4 -5 -6 -6 -6 -6 -6 -7 -7 -6 -6 -5 -5 -6 -6 -6 -6 -6 -6 -6 -5 -5 -5 -5 -4 -4 -3
1 2 2 2 2 1 -1 -1 -1 -1 -2 -2 -2 -2 -2 -3 -3 -3 -3 -3 -3 -4 -5 -5 -6 -6 -6 -6 -6 -6 -6 -6 -6 -5 -6 -6 -6 -6 -6 -6 -6 -6 -6 -6 -5 -5 -5 -4 -3
3 3 3 3 3 2 -0 -1 -1 -2 -2 -2 -2 -2 -3 -3 -3 -3 -3 -3 -3 -4 -5 -5 -6 -6 -6 -6 -6 -6 -6 -6 -6 -6 -6 -6 -6 -6 -6 -6 -6 -6 -6 -6 -5 -5 -4 -4 -3
4 3 3 3 3 2 0 -1 -1 -2 -2 -3 -2 -2 -3 -3 -4 -4 -3 -3 -3 -4 -4 -5 -6 -6 -6 -6 -6 -6 -6 -7 -7 -7 -7 -7 -6 -6 -5 -5 -6 -6 -6 -6 -5 -5 -4 -4 -3
3 3 3 3 3 2 1 -1 -1 -2 -2 -3 -2 -3 -3 -3 -3 -4 -4 -3 -3 -4 -4 -5 -5 -6 -6 -6 -6 -6 -6 -7 -7 -7 -7 -7 -6 -6 -5 -5 -5 -5 -5 -5 -5 -5 -4 -4 -3
3 3 2 2 2 2 1 -0 -1 -2 -3 -3 -2 -3 -3 -3 -3 -3 -4 -4 -3 -3 -4 -4 -5 -5 -6 -6 -6 -6 -6 -6 -6 -6 -7 -7 -7 -6 -6 -5 -5 -5 -5 -5 -5 -5 -5 -4 -4
2 2 2 2 2 2 2 0 -1 -3 -3 -3 -3 -3 -3 -2 -3 -3 -3 -3 -3 -3 -3 -4 -5 -5 -5 -6 -6 -6 -6 -5 -6 -6 -6 -6 -6 -6 -6 -6 -6 -5 -5 -5 -5 -5 -5 -4 -4
1 1 1 1 2 2 2 0 -1 -3 -3 -3 -3 -3 -3 -2 -2 -2 -3 -3 -3 -3 -3 -4 -4 -5 -5 -5 -6 -6 -6 -5 -5 -5 -6 -6 -6 -6 -6 -6 -6 -6 -6 -5 -5 -5 -5 -4 -4
1 0 1 1 1 1 1 0 -1 -3 -3 -3 -3 -3 -3 -3 -2 -2 -2 -3 -3 -3 -3 -4 -4 -5 -5 -5 -6 -6 -6 -6 -6 -6 -6 -6 -6 -6 -6 -6 -6 -6 -6 -6 -5 -5 -5 -4 -4
1 1 1 1 1 1 1 0 -1 -2 -3 -3 -3 -3 -3 -4 -3 -3 -2 -3 -3 -3 -3 -4 -4 -5 -5 -5 -6 -6 -6 -6 -6 -6 -6 -6 -6 -6 -6 -6 -6 -6 -6 -6 -5 -5 -4 -4 -4
1 1 1 1 1 1 1 1 0 -1 -2 -3 -3 -3 -4 -4 -4 -3 -3 -3 -3 -3 -3 -4 -4 -5 -5 -5 -5 -6 -6 -6 -6 -6 -6 -6 -6 -6 -7 -6 -6 -6 -6 -5 -5 -5 -5 -4 -4
2 1 1 1 1 1 1 1 1 -1 -2 -2 -3 -3 -3 -4 -4 -4 -3 -3 -3 -3 -3 -4 -4 -5 -5 -5 -6 -6 -6 -6 -6 -6 -6 -6 -6 -6 -7 -6 -6 -6 -6 -6 -5 -5 -5 -5 -5
3 2 2 1 1 1 1 1 1 -0 -2 -2 -3 -3 -3 -4 -4 -4 -4 -4 -3 -3 -3 -4 -4 -4 -5 -6 -6 -6 -6 -6 -6 -6 -6 -6 -6 -6 -6 -6 -6 -6 -6 -6 -6 -5 -5 -5 -5
3 3 2 2 2 1 1 1 1 0 -2 -3 -3 -3 -3 -4 -5 -5 -5 -4 -4 -3 -3 -4 -4 -4 -5 -5 -6 -6 -6 -5 -5 -6 -6 -6 -6 -6 -6 -6 -6 -6 -6 -6 -6 -6 -5 -5 -5
3 3 3 2 2 1 1 2 2 1 -1 -3 -3 -4 -4 -4 -5 -5 -5 -5 -5 -4 -4 -4 -4 -4 -5 -5 -5 -5 -5 -5 -5 -5 -5 -6 -6 -6 -6 -6 -6 -6 -6 -6 -6 -6 -5 -5 -5
3 3 2 1 1 1 2 2 2 1 -1 -3 -4 -4 -5 -5 -6 -6 -6 -6 -6 -5 -5 -5 -4 -4 -4 -4 -4 -5 -5 -5 -5 -5 -5 -5 -6 -6 -6 -6 -6 -6 -6 -6 -6 -6 -6 -5 -5
3 3 2 1 1 1 2 2 2 1 -1 -3 -5 -5 -5 -6 -7 -7 -7 -7 -6 -6 -6 -5 -5 -5 -5 -5 -5 -5 -5 -5 -5 -5 -5 -6 -6 -6 -6 -6 -6 -6 -6 -6 -6 -6 -5 -5 -4
3 3 2 2 1 1 2 2 2 1 -1 -4 -5 -6 -6 -6 -7 -7 -7 -7 -7 -6 -6 -6 -6 -5 -5 -5 -5 -5 -5 -5 -5 -5 -5 -5 -5 -5 -5 -6 -6 -5 -5 -5 -5 -5 -5 -5 -5
3 3 3 2 1 1 1 2 2 2 -0 -3 -5 -5 -6 -6 -6 -7 -7 -7 -6 -6 -6 -6 -5 -5 -4 -3 -3 -3 -3 -4 -4 -4 -4 -4 -4 -4 -4 -5 -5 -5 -5 -5 -5 -5 -5 -5 -5
3 3 3 3 2 2 2 2 2 2 0 -2 -4 -5 -5 -5 -5 -5 -5 -5 -5 -5 -5 -4 -4 -3 -2 -2 -2 -2 -2 -2 -2 -2 -3 -3 -2 -2 -2 -3 -4 -4 -5 -5 -5 -5 -5 -5 -5
3 3 3 3 3 3 2 2 3 2 1 -1 -3 -4 -4 -5 -4 -4 -4 -4 -4 -4 -4 -3 -3 -2 -1 -1 -1 -1 -1 -1 -1 -1 -2 -1 -1 -1 -1 -2 -2 -3 -4 -5 -4 -4 -4 -5 -5